Weather History for KGZH - October, 2013

Change the Weather History Date:

Tuesday, October 1, 2013

  Actual Average (KPRN) Record (KPRN)
Temperature  
Mean Temperature 78 °F -  
Max Temperature 87 °F 81 °F 95 °F (1986)
Min Temperature 68 °F 59 °F 44 °F (1972)
Cooling Degree Days 13    
Growing Degree Days 28 (Base 50)    
Moisture  
Dew Point 67 °F    
Average Humidity 79    
Maximum Humidity 93    
Minimum Humidity 51    
Precipitation  
Precipitation 0.00 in - - ()
Sea Level Pressure  
Sea Level Pressure 30.06 in    
Wind  
Wind Speed 3 mph (East)    
Max Wind Speed 8 mph    
Max Gust Speed -    
Visibility 10 miles    
Events      
Averages and records for this station are not official NWS values.
T = Trace of Precipitation, MM = Missing Value Source: NWS Daily Summary

Daily Weather History Graph

Daily Weather History Graph

Search for Another Location

Airport or City:

Trip Planner

Search our weather history database for the weather conditions in past years. The results will help you decide how hot, cold, wet, or windy it might be!

Date:

Astronomy

Oct. 01, 2013 Rise Set
Actual Time 6:42 AM CDT 6:32 PM CDT
Civil Twilight 6:17 AM CDT 6:57 PM CDT
Nautical Twilight 5:49 AM CDT 7:25 PM CDT
Astronomical Twilight 5:21 AM CDT 7:53 PM CDT
Moon 3:26 AM CDT (10/1) 4:27 PM CDT (10/1)
Length of Visible Light 12h 39m
Length of Day
11h 50m
Waning Crescent, 12% of the Moon is Illuminated
Oct 1
Waning Crescent
Oct 4
New
Oct 11
First Quarter
Oct 18
Full
Oct 26
Last Quarter

Hourly Weather History & Observations

Time (CDT) Temp. Heat Index Dew Point Humidity Pressure Visibility Wind Dir Wind Speed Gust Speed Precip Events Conditions
12:53 AM 71.1 °F - 68.0 °F 90% 30.02 in 8.0 mi ESE 3.5 mph - N/A   Overcast
1:53 AM 70.0 °F - 66.9 °F 90% 30.03 in 10.0 mi SSE 3.5 mph - N/A   Partly Cloudy
2:53 AM 69.1 °F - 66.0 °F 90% 30.03 in 10.0 mi ESE 4.6 mph - N/A   Overcast
3:27 AM 69.8 °F - 66.2 °F 88% 30.05 in 10.0 mi East 3.5 mph - N/A   Overcast
3:37 AM 69.8 °F - 66.2 °F 88% 30.05 in 10.0 mi East 5.8 mph - N/A   Overcast
3:53 AM 69.1 °F - 66.0 °F 90% 30.04 in 10.0 mi East 4.6 mph - N/A   Overcast
4:05 AM 69.8 °F - 66.2 °F 88% 30.05 in 10.0 mi Calm Calm - N/A   Overcast
4:53 AM 69.1 °F - 66.0 °F 90% 30.05 in 10.0 mi Calm Calm - N/A   Overcast
5:53 AM 69.1 °F - 64.9 °F 87% 30.06 in 10.0 mi East 4.6 mph - N/A   Overcast
6:53 AM 69.1 °F - 64.0 °F 84% 30.08 in 10.0 mi East 3.5 mph - N/A   Overcast
7:53 AM 70.0 °F - 64.0 °F 81% 30.09 in 10.0 mi East 4.6 mph - N/A   Overcast
8:53 AM 71.1 °F - 64.9 °F 81% 30.11 in 10.0 mi East 6.9 mph - N/A   Overcast
9:53 AM 73.9 °F - 66.0 °F 76% 30.12 in 10.0 mi East 3.5 mph - N/A   Overcast
10:53 AM 77.0 °F - 68.0 °F 74% 30.11 in 10.0 mi ESE 4.6 mph - N/A   Scattered Clouds
11:34 AM 78.8 °F - 69.8 °F 74% 30.11 in 10.0 mi Calm Calm - N/A   Mostly Cloudy
11:53 AM 81.0 °F 83.8 °F 68.0 °F 65% 30.09 in 10.0 mi ENE 5.8 mph - N/A   Partly Cloudy
12:53 PM 84.0 °F 87.0 °F 68.0 °F 58% 30.06 in 10.0 mi East 8.1 mph - N/A   Partly Cloudy
1:53 PM 87.1 °F 89.9 °F 66.9 °F 51% 30.04 in 10.0 mi Variable 4.6 mph - N/A   Mostly Cloudy
2:53 PM 84.9 °F 87.6 °F 66.9 °F 55% 30.03 in 10.0 mi ENE 4.6 mph - N/A   Mostly Cloudy
3:53 PM 84.0 °F 85.8 °F 64.9 °F 53% 30.03 in 10.0 mi East 5.8 mph - N/A   Scattered Clouds
4:53 PM 84.9 °F 87.1 °F 66.0 °F 53% 30.02 in 10.0 mi ENE 4.6 mph - N/A   Clear
5:53 PM 79.0 °F - 70.0 °F 74% 30.04 in 10.0 mi Calm Calm - N/A   Clear
6:53 PM 73.9 °F - 70.0 °F 87% 30.04 in 10.0 mi Calm Calm - N/A   Clear
7:53 PM 73.0 °F - 69.1 °F 87% 30.05 in 10.0 mi Calm Calm - N/A   Clear
8:53 PM 71.1 °F - 68.0 °F 90% 30.07 in 10.0 mi Calm Calm - N/A   Clear
9:53 PM 70.0 °F - 66.9 °F 90% 30.08 in 7.0 mi Calm Calm - N/A   Clear
10:53 PM 69.1 °F - 66.9 °F 93% 30.09 in 7.0 mi Calm Calm - N/A   Clear
11:53 PM 68.0 °F - 66.0 °F 93% 30.08 in 5.0 mi Calm Calm - N/A   Clear